Back to catalog

PEGASUS DEB

LostPO
NORAD 27755·DEBRIS·🇺🇸 United States

Launched May 19, 1994 from Vandenberg Space Force Base

Loading…

Next Passes (next 24 hours)

TLE

StaleSource: Space-Track

Epoch: Oct 28, 2005, 12:03 UTC

1 27755U 94029AEK 05301.50218394  .00000708  00000-0  38671-3 0  9994
2 27755  81.8188 133.1962 0861058  33.6818 331.6603 12.99182376142618

Track PEGASUS DEB in real time with AllMySat

Download on the App Store